Regional Weather Roundup
Issued by NWS

Home | Current Version | Previous Version | Graphics & Text | Print | Product List | Glossary Off
Versions: 1 2 3 4 5 6 7 8 9 10 11 12 13 14 15 16 17 18 19 20 21 22 23 24 25 26 27 28 29 30 31 32 33 34 35 36 37 38 39 40 41 42 43 44 45 46 47 48 49 50

000
ASUS43 KMPX 031510
RWRMN
WEATHER ROUNDUP FOR MINNESOTA
NATIONAL WEATHER SERVICE TWIN CITIES/CHANHASSEN MN
1000 AM CDT THU SEP 03 2015


NOTE: "FAIR" INDICATES FEW OR NO CLOUDS BELOW 12,000 FEET WITH NO
SIGNIFICANT WEATHER AND/OR OBSTRUCTIONS TO VISIBILITY. N/A MEANS
CURRENT SKY AND/OR WEATHER CONDITIONS ARE NOT AVAILABLE.

MNZ060>063-068>070-031600-
   Twin Cities Metro

CITY           SKY/WX    TMP DP  RH WIND       PRES   REMARKS
TWIN CITIES    CLOUDY    72  70  93 E8        29.92R FOG
ST PAUL        CLOUDY    71  69  93 SE7       29.92S
CRYSTAL        MOSUNNY   78  70  76 SE6       29.90S
BLAINE         CLOUDY    73  72  94 E9        29.92S FOG
LAKEVILLE      CLOUDY    70  70 100 E3        29.92R FOG
EDEN PRAIRIE   CLOUDY    71  69  93 SE6       29.90S FOG
SOUTH ST PAUL  CLOUDY    72  69  91 SE6       29.92R
LAKE ELMO      FOG       70  70 100 E6        29.94R VSB 1/2
$$
MNZ001>005-007-008-013>017-022>024-027-028-031600-
   Northwest Minnesota

CITY           SKY/WX    TMP DP  RH WIND       PRES   REMARKS
BEMIDJI        CLOUDY    70  65  83 SE13      29.91F
HALLOCK        CLOUDY    75  72  88 SE16      29.77F
ROSEAU         CLOUDY    70  64  83 SE10      29.85F
WARROAD        CLOUDY    66  64  94 SE12      29.88S
THIEF RVR FALL MOSUNNY   75  70  83 SE17      29.83F
CROOKSTON      SUNNY     79  70  73 S22       29.80F
FOSSTON        SUNNY     75  64  69 SE12G18   29.85F
DETROIT LAKES  MOSUNNY   73  68  83 SE20      29.87F
MOORHEAD       PTSUNNY   77  70  78 S14       29.81S
PARK RAPIDS    SUNNY     74  65  73 SE13      29.91S
MAHNOMEN       FAIR      74  67  78 SE10G16   29.84F
$$
MNZ006-009>011-018-025>026-031600-
   North Central Minnesota

CITY           SKY/WX    TMP DP  RH WIND       PRES   REMARKS
BAUDETTE       CLOUDY    67  63  87 SE16G23   29.90F
FLAG ISLAND    CLOUDY    66  63  88 S22       29.87F
INTL FALLS     MOSUNNY   69  63  81 SE9       29.95F
WASKISH        PTSUNNY   68  66  94 E10       29.91F
BIG FORK       CLOUDY    68  63  83 SE6       29.96F
LONGVILLE      SUNNY     70  63  78 SE7       29.94S
GRAND RAPIDS     N/A     66  61  82 SE8       29.97F
CRANE LAKE     SUNNY     64  61  88 SE3       29.99F
ORR            PTSUNNY   64  61  88 SE2       29.96F
COOK           SUNNY     68  63  83 SE5       29.99S
WALKER         FAIR      70  64  80 SE9       29.92F
$$
MNZ012-019>021-037-031600-
   Northeast Minnesota

CITY           SKY/WX    TMP DP  RH WIND       PRES   REMARKS
DULUTH         DRZL/FOG  62  61  96 E10       30.00S VSB 1/4
ELY            SUNNY     68  61  77 SE8       30.00S
HIBBING        CLOUDY    64  62  93 SE6       29.99S
EVELETH        CLOUDY    63  63 100 SE7       30.00F
DULUTH HARBOR  FOG       59  57  94 NE10      30.00S VSB 1/2
TWO HARBORS    HAZE      64  61  88 E8        29.99S VSB 1/4
SILVER BAY     CLOUDY    64  63  94 NE9       30.00S FOG
GRAND MARAIS     N/A     61  55  81 SE3       30.01F
G MARAIS ARPRT SUNNY     68  52  56 SE5       30.05F
$$
MNZ029>031-032-039>041-046>048-054>057-064-031600-
   West Central Minnesota

CITY           SKY/WX    TMP DP  RH WIND       PRES   REMARKS
FERGUS FALLS   SUNNY     75  72  88 SE17      29.83S
WHEATON        CLOUDY    70  68  94 SE13      29.85R FOG
MORRIS         CLOUDY    72  70  94 SE10      29.85S FOG
ALEXANDRIA     CLOUDY    69  69 100 E12       29.90S FOG
ELBOW LAKE     PTSUNNY   74  70  88 SE12G20   29.85S
WADENA         CLOUDY    72  68  88 SE10      29.90S
GLENWOOD       FOG       70  70 100 E12       29.90S VSB 3/4
APPLETON       CLOUDY    73  70  88 SE8       29.85S FOG
BENSON         CLOUDY    72  68  88 SE9       29.87S FOG
ORTONVILLE     CLOUDY    72  70  94 SE12      29.84S
MADISON        MOSUNNY   73  72  94 SE10      29.85S
WILLMAR        CLOUDY    72  72 100 SE12      29.90R FOG
$$
MNZ033>034-036-042>043-049>051-058-059-031600-
   Central Minnesota

CITY           SKY/WX    TMP DP  RH WIND       PRES   REMARKS
ST CLOUD       CLOUDY    71  68  90 E8        29.91S
SAUK CENTRE    CLOUDY    69  69  98 E7        29.91S FOG
PAYNESVILLE    CLOUDY    69  69 100 E6        29.91S FOG
AITKIN         PTSUNNY   68  63  83 SE8       29.95S
PINE RIVER     MOSUNNY   70  64  83 SE9       29.96F
BRAINERD       CLOUDY    69  65  86 VRB7      29.94S
STAPLES        CLOUDY    72  66  83 E7        29.91S
LONG PRAIRIE   CLOUDY    70  68  94 E9        29.91F
LITTLE FALLS   MOSUNNY   73  64  73 E6        29.91F
LITCHFIELD     FOG       72  72 100 SE9       29.91S VSB 3/4
BUFFALO        CLOUDY    71  69  93 E6        29.92S FOG
MAPLE LAKE     CLOUDY    71  71  98 E5        29.92S FOG
$$
MNZ037-044-045-052-053-031600-
   East Central Minnesota

CITY           SKY/WX    TMP DP  RH WIND       PRES   REMARKS
PRINCETON      PTSUNNY   73  68  83 E8        29.93S
MORA           CLOUDY    64  64 100 E5        29.97S FOG
CAMBRIDGE      CLOUDY    72  63  73 E5        29.92S
RUSH CITY      CLOUDY    67  66  96 NE5       29.95S
MOOSE LAKE     CLOUDY    63  61  94 E3        29.97R
HINCKLEY       PTSUNNY   70  66  88 E7        29.96S
CLOQUET        FOG       63  61  94 E9        29.99S VSB 3/4
MCGREGOR       PTSUNNY   64  63  94 E10       29.97F
$$
MNZ071>073-080-081-089-090-097-098-031600-
   Southwest Minnesota

CITY           SKY/WX    TMP DP  RH WIND       PRES   REMARKS
MONTEVIDEO     CLOUDY    73  73 100 S8        29.88S FOG
GRANITE FALLS  CLOUDY    71  71  99 E7        29.88S FOG
CANBY          CLOUDY    69  68  96 SE7       29.86S FOG
MARSHALL       SUNNY     73  66  78 SE8       29.87S
REDWOOD FALLS  PTSUNNY   73  70  90 SE7       29.87S FOG
OLIVIA         CLOUDY    68  64  88 SE7       29.88S FOG
PIPESTONE      SUNNY     75  70  83 S7        29.87S
WINDOM         SUNNY     77  70  78 CALM      29.88F
WORTHINGTON    SUNNY     75  68  78 S8        29.88F
JACKSON        SUNNY     77  72  83 S7        29.90S
TRACY          SUNNY     77  71  81 SE8       29.87S
SLAYTON        SUNNY     72  72 100 CALM      29.89S
$$
MNZ065>067-074>077-082>085-091>093-031600-
   South Central Minnesota

CITY           SKY/WX    TMP DP  RH WIND       PRES   REMARKS
MANKATO        SUNNY     75  72  88 SE8       29.90S
NEW ULM        SUNNY     73  72  94 SE6       29.88F
ST JAMES       SUNNY     75  72  88 SE7       29.89F
FAIRMONT       SUNNY     75  66  73 S9        29.89S
GLENCOE        CLOUDY    72  72 100 E8        29.90S FOG
FARIBAULT      SUNNY     77  72  83 CALM      29.92S
OWATONNA       SUNNY     79  72  78 SE3       29.91F
WASECA         SUNNY     77  72  83 SE5       29.92S
ALBERT LEA     SUNNY     75  72  88 S3        29.91F
$$
MNZ078>079-086>088-094>096-031600-
   Southeast Minnesota

CITY           SKY/WX    TMP DP  RH WIND       PRES   REMARKS
ROCHESTER      SUNNY     77  71  82 S3        29.94S
RED WING       CLOUDY    73  70  88 SE5       29.92R
STANTON        CLOUDY    72  70  94 CALM      29.91S
DODGE CENTER   SUNNY     75  72  88 CALM      29.93S
WINONA         MOSUNNY   73  73 100 E3        29.92F
AUSTIN         SUNNY     77  72  83 S3        29.92F
PRESTON        SUNNY     76  69  80 CALM      29.95R
$$
ABBREVIATIONS USED IN REMARKS
   TC - TEMPERATURES IN CELSIUS
  WCI - WIND CHILL INDEX
   HX - HEAT INDEX
  VSB - VISIBILITY
$$



USA.gov is the U.S. government's official web portal to all federal, state and local government web resources and services.